FW2581 Weather Reports


time (UTC)temp
F
wind
direction
speed
knots
gust
knots
rain 1hr
in
rain 24hr
in
rain mn
in
humidity
%
barometer
mb
20260505234530 79 12 2.6 7.0 0.00 0.00 0.00 42 1012.2
20260505233032 80 21 2.6 7.8 0.00 0.00 0.00 41 1012.4
20260505231554 81 1 4.3 7.8 0.00 0.00 0.00 41 1012.4
20260505224531 80 8 3.5 9.6 0.00 0.00 0.00 40 1012.6
20260505223029 80 3 3.5 8.7 0.00 0.00 0.00 41 1012.7
20260505221532 81 345 4.3 9.6 0.00 0.00 0.00 40 1012.8
20260505214641 81 357 2.6 6.1 0.00 0.00 0.00 40 1013.1
20260505213143 80 17 2.6 6.1 0.00 0.00 0.00 41 1013.2
20260505211535 80 25 2.6 7.0 0.00 0.00 0.00 42 1013.3
20260505204532 78 58 2.6 7.8 0.00 0.00 0.00 45 1013.6
20260505203029 78 17 2.6 8.7 0.00 0.00 0.00 46 1013.7
20260505201609 77 24 2.6 7.0 0.00 0.00 0.00 47 1013.7
20260505200037 77 26 2.6 7.0 0.00 0.00 0.00 47 1013.9
20260505193030 76 81 1.7 6.1 0.00 0.00 0.00 50 1014.0
20260505191531 76 76 2.6 6.1 0.00 0.00 0.00 51 1014.0
20260505184534 73 74 2.6 6.1 0.00 0.00 0.00 54 1014.3
20260505183030 72 28 2.6 7.8 0.00 0.00 0.00 54 1014.4
20260505181531 71 27 2.6 7.0 0.00 0.00 0.00 57 1014.3
20260505180030 71 7 3.5 7.0 0.00 0.00 0.00 58 1014.3
20260505174535 70 53 2.6 6.1 0.00 0.00 0.00 60 1014.3
20260505173035 69 96 3.5 7.8 0.00 0.00 0.00 62 1014.3
20260505170043 65 79 3.5 7.0 0.00 0.00 0.00 69 1014.3
20260505164535 63 76 3.5 7.0 0.00 0.00 0.00 71 1014.3
20260505163030 63 82 2.6 6.1 0.00 0.00 0.00 71 1014.3
20260505161536 63 66 1.7 5.2 0.00 0.00 0.00 74 1014.3
20260505153028 56 35 3.5 5.2 0.00 0.00 0.00 90 1014.0
20260505124530 45 214 1.7 4.3 0.00 0.00 0.00 94 1012.6
20260505123141 45 179 1.7 4.3 0.00 0.00 0.00 93 1012.5
20260505121543 45 229 1.7 3.5 0.00 0.00 0.00 93 1012.4
20260505120033 45 229 1.7 4.3 0.00 0.00 0.00 93 1012.4
20260505114535 46 202 1.7 3.5 0.00 0.00 0.00 92 1012.3
20260505111607 46 202 0.0 1.7 0.00 0.00 0.00 92 1012.1
20260505101608 48 205 2.6 5.2 0.00 0.00 0.00 91 1011.8
20260505100107 49 202 2.6 4.3 0.00 0.00 0.00 91 1011.7
20260505094651 48 202 2.6 5.2 0.00 0.00 0.00 90 1011.6
20260505093032 48 230 2.6 4.3 0.00 0.00 0.00 90 1011.6
20260505090036 49 204 0.9 2.6 0.00 0.00 0.00 89 1011.4
20260505084606 49 211 1.7 3.5 0.00 0.00 0.00 88 1011.5
20260505081606 51 237 0.0 3.5 0.00 0.00 0.00 86 1011.4
20260505080036 51 229 0.9 3.5 0.00 0.00 0.00 86 1011.5
20260505074530 52 196 1.7 3.5 0.00 0.00 0.00 84 1011.4
20260505073031 53 111 0.9 3.5 0.00 0.00 0.00 82 1011.2
20260505071532 54 181 1.7 3.5 0.00 0.00 0.00 79 1011.1
20260505064532 57 286 0.9 3.5 0.00 0.00 0.00 72 1011.0
20260505063030 59 243 0.0 2.6 0.00 0.00 0.00 69 1011.0
20260505061533 59 268 0.9 4.3 0.00 0.00 0.00 69 1011.0
20260505060036 58 288 1.7 6.1 0.00 0.00 0.00 69 1010.9
20260505054529 58 292 0.9 5.2 0.00 0.00 0.00 69 1010.9
20260505053032 58 216 0.0 2.6 0.00 0.00 0.00 67 1010.8
20260505051537 60 111 0.0 2.6 0.00 0.00 0.00 62 1010.7
20260505041530 65 322 0.9 7.8 0.00 0.00 0.00 50 1010.1
20260505040049 65 268 1.7 8.7 0.00 0.00 0.00 49 1009.9
20260505031528 68 283 5.2 13.9 0.00 0.00 0.00 45 1009.1
20260505030032 69 279 5.2 14.8 0.00 0.00 0.00 43 1008.9
20260505024605 71 287 4.3 9.6 0.00 0.00 0.00 40 1008.7
20260505021530 73 286 7.0 17.4 0.00 0.00 0.00 36 1008.7
20260505014607 75 285 7.0 14.8 0.00 0.00 0.00 35 1008.6
20260505011535 77 289 7.0 13.9 0.00 0.00 0.00 34 1008.6
20260505010035 78 288 7.0 16.5 0.00 0.00 0.00 32 1008.6
20260505003111 80 291 7.0 15.6 0.00 0.00 0.00 31 1008.5